Weather History for LTBA - December, 2013

Change the Weather History Date:

Wednesday, December 18, 2013

  Actual Average Record
Temperature  
Mean Temperature 48 °F -  
Max Temperature 51 °F 47 °F 59 °F (1999)
Min Temperature 44 °F 39 °F 28 °F (1997)
Degree Days  
Heating Degree Days 18    
Moisture  
Dew Point 38 °F    
Average Humidity 68    
Maximum Humidity 87    
Minimum Humidity 46    
Precipitation  
Precipitation 0.00 in - - ()
Sea Level Pressure  
Sea Level Pressure 30.36 in    
Wind  
Wind Speed 8 mph ()    
Max Wind Speed 17 mph    
Max Gust Speed -    
Visibility 6.2 miles    
Events      
Averages and records for this station are not official NWS values.
T = Trace of Precipitation, MM = Missing Value Source: Averaged Metar Reports

Daily Weather History Graph

Daily Weather History Graph

Search for Another Location

Airport or City:

Trip Planner

Search our weather history database for the weather conditions in past years. The results will help you decide how hot, cold, wet, or windy it might be!

Date:

Astronomy

Dec. 18, 2013 Rise Set
Actual Time 7:24 AM EET 4:38 PM EET
Civil Twilight 6:53 AM EET 5:09 PM EET
Nautical Twilight 6:18 AM EET 5:44 PM EET
Astronomical Twilight 5:45 AM EET 6:17 PM EET
Moon 5:53 PM EET (12/18) 7:49 AM EET (12/18)
Length of Visible Light 10h 16m
Length of Day
9h 13m
Full, 99% of the Moon is Illuminated
Dec 18
Full
Dec 25
Last Quarter
Jan 1
New
Jan 8
First Quarter
Jan 16
Full

Hourly Weather History & Observations

Time (EET) Temp. Windchill Dew Point Humidity Pressure Visibility Wind Dir Wind Speed Gust Speed Precip Events Conditions
12:20 AM 46.4 °F 41.9 °F 41.0 °F 81% 30.45 in 6.2 mi NE 9.2 mph - N/A   Mostly Cloudy
12:50 AM 46.4 °F 42.9 °F 41.0 °F 81% 30.42 in 6.2 mi NE 6.9 mph - N/A   Mostly Cloudy
1:20 AM 46.4 °F 42.9 °F 39.2 °F 76% 30.42 in 6.2 mi NE 6.9 mph - N/A   Mostly Cloudy
1:50 AM 46.4 °F 42.9 °F 39.2 °F 76% 30.42 in 6.2 mi NE 6.9 mph - N/A   Mostly Cloudy
2:00 AM 46 °F - 39 °F 70% 30.44 in 6 mi NE 6.9 mph - -   Partly Cloudy
2:20 AM 44.6 °F 41.4 °F 39.2 °F 81% 30.42 in 6.2 mi NNE 5.8 mph - N/A   Scattered Clouds
2:50 AM 44.6 °F 40.7 °F 39.2 °F 81% 30.42 in 6.2 mi NNE 6.9 mph - N/A   Scattered Clouds
3:20 AM 44.6 °F 40.2 °F 39.2 °F 81% 30.39 in 6.2 mi NNE 8.1 mph - N/A   Scattered Clouds
3:50 AM 44.6 °F 39.7 °F 41.0 °F 87% 30.39 in 6.2 mi NNE 9.2 mph - N/A   Scattered Clouds
4:20 AM 44.6 °F 39.7 °F 41.0 °F 87% 30.39 in 6.2 mi NNE 9.2 mph - N/A   Scattered Clouds
4:50 AM 46.4 °F 42.4 °F 41.0 °F 81% 30.39 in 6.2 mi NNE 8.1 mph - N/A   Scattered Clouds
5:00 AM 46 °F - 41 °F 75% 30.40 in 6 mi NNE 8.1 mph - -   Partly Cloudy
5:20 AM 44.6 °F 40.2 °F 41.0 °F 87% 30.39 in 6.2 mi NNE 8.1 mph - N/A   Scattered Clouds
5:50 AM 46.4 °F 42.9 °F 41.0 °F 81% 30.36 in 6.2 mi NNE 6.9 mph - N/A   Scattered Clouds
6:20 AM 46.4 °F 42.4 °F 39.2 °F 76% 30.36 in 6.2 mi NNE 8.1 mph - N/A   Scattered Clouds
6:50 AM 46.4 °F 42.4 °F 41.0 °F 81% 30.39 in 6.2 mi NNE 8.1 mph - N/A   Scattered Clouds
7:20 AM 46.4 °F 42.4 °F 39.2 °F 76% 30.36 in 6.2 mi NE 8.1 mph - N/A   Partly Cloudy
7:50 AM 46.4 °F 41.9 °F 39.2 °F 76% 30.39 in 6.2 mi NE 9.2 mph - N/A   Partly Cloudy
8:00 AM 46 °F - 39 °F 68% 30.40 in 6 mi NE 9.2 mph - -   Scattered Clouds
8:20 AM 48.2 °F - 39.2 °F 71% 30.39 in 6.2 mi ENE 6.9 mph - N/A   Partly Cloudy
8:50 AM 46.4 °F 41.5 °F 41.0 °F 81% 30.39 in 6.2 mi NE 10.4 mph - N/A   Partly Cloudy
9:20 AM 48.2 °F - 41.0 °F 76% 30.39 in 6.2 mi Variable 10.4 mph - N/A   Scattered Clouds
9:50 AM 50.0 °F - 39.2 °F 66% 30.39 in 6.2 mi ENE 12.7 mph - N/A   Scattered Clouds
10:20 AM 48.2 °F - 39.2 °F 71% 30.39 in 6.2 mi ENE 9.2 mph - N/A   Scattered Clouds
10:50 AM 48.2 °F - 37.4 °F 66% 30.36 in 6.2 mi ENE 11.5 mph - N/A   Scattered Clouds
11:00 AM 49 °F - 39 °F 58% 30.39 in 6 mi ENE 11.5 mph - -   Partly Cloudy
11:20 AM 50.0 °F - 37.4 °F 62% 30.36 in 6.2 mi ENE 9.2 mph - N/A   Scattered Clouds
11:50 AM 50.0 °F - 37.4 °F 62% 30.36 in 6.2 mi NE 10.4 mph - N/A   Scattered Clouds
12:20 PM 50.0 °F - 37.4 °F 62% 30.33 in 6.2 mi NE 11.5 mph - N/A   Scattered Clouds
12:50 PM 50.0 °F - 37.4 °F 62% 30.33 in 6.2 mi NE 11.5 mph - N/A   Scattered Clouds
1:20 PM 50.0 °F - 35.6 °F 58% 30.33 in 6.2 mi NNE 11.5 mph - N/A   Scattered Clouds
1:50 PM 50.0 °F - 35.6 °F 58% 30.30 in 6.2 mi ENE 11.5 mph - N/A   Scattered Clouds
2:00 PM 50 °F - 36 °F 46% 30.33 in 6 mi ENE 11.5 mph - -   Partly Cloudy
2:20 PM 50.0 °F - 35.6 °F 58% 30.30 in 6.2 mi NNE 12.7 mph - N/A   Scattered Clouds
2:50 PM 48.2 °F - 35.6 °F 62% 30.30 in 6.2 mi NE 16.1 mph - N/A   Scattered Clouds
3:20 PM 50.0 °F - 35.6 °F 58% 30.30 in 6.2 mi NE 12.7 mph - N/A   Scattered Clouds
3:50 PM 48.2 °F - 33.8 °F 58% 30.30 in 6.2 mi NE 17.3 mph - N/A   Scattered Clouds
4:20 PM 48.2 °F - 37.4 °F 66% 30.33 in 6.2 mi NE 10.4 mph - N/A   Scattered Clouds
4:50 PM 48.2 °F - 37.4 °F 66% 30.33 in 6.2 mi NE 11.5 mph - N/A   Mostly Cloudy
5:00 PM 48 °F - 37 °F 55% 30.34 in 6 mi NE 11.5 mph - -   Mostly Cloudy
5:20 PM 48.2 °F - 35.6 °F 62% 30.33 in 6.2 mi NE 12.7 mph - N/A   Mostly Cloudy
5:50 PM 48.2 °F - 37.4 °F 66% 30.33 in 6.2 mi NE 12.7 mph - N/A   Mostly Cloudy
6:20 PM 48.2 °F - 35.6 °F 62% 30.33 in 6.2 mi NE 10.4 mph - N/A   Mostly Cloudy
6:50 PM 48.2 °F - 35.6 °F 62% 30.33 in 6.2 mi NE 9.2 mph - N/A   Mostly Cloudy
7:20 PM 48.2 °F - 35.6 °F 62% 30.33 in 6.2 mi NE 11.5 mph - N/A   Mostly Cloudy
7:50 PM 48.2 °F - 35.6 °F 62% 30.33 in 6.2 mi NE 10.4 mph - N/A   Mostly Cloudy
8:00 PM 48 °F - 34 °F 48% 30.35 in 6 mi NE 10.4 mph - -   Mostly Cloudy
8:20 PM 48.2 °F - 33.8 °F 58% 30.33 in 6.2 mi ENE 9.2 mph - N/A   Mostly Cloudy
8:50 PM 48.2 °F - 35.6 °F 62% 30.33 in 6.2 mi NE 4.6 mph - N/A   Mostly Cloudy
9:20 PM 48.2 °F - 35.6 °F 62% 30.33 in 6.2 mi NE 8.1 mph - N/A   Mostly Cloudy
9:50 PM 48.2 °F - 35.6 °F 62% 30.33 in 6.2 mi NE 6.9 mph - N/A   Mostly Cloudy
10:20 PM 46.4 °F - 35.6 °F 66% 30.33 in 6.2 mi Variable 2.3 mph - N/A   Mostly Cloudy
10:50 PM 46.4 °F - 35.6 °F 66% 30.33 in 6.2 mi Variable 2.3 mph - N/A   Mostly Cloudy
11:00 PM 47 °F - 36 °F 56% 30.35 in 6 mi ENE 2.3 mph - -   Mostly Cloudy
11:20 PM 46.4 °F 44.3 °F 37.4 °F 71% 30.33 in 6.2 mi ENE 4.6 mph - N/A   Mostly Cloudy
11:50 PM 46.4 °F 45.2 °F 37.4 °F 71% 30.33 in 6.2 mi ENE 3.5 mph - N/A   Mostly Cloudy